Location: Madrid
(40.4168°N, 3.7038°W)
Time: 23:31:59
(UTC+01:00)

ISS - Visible Passes

Search period start: 11 November 2019 00:00
Search period end: 21 November 2019 00:00
Orbit: 412 x 421 km, 51.6° (Epoch: 12 November)

Date Brightness Start Highest point End Pass type
(mag) Time Alt. Az. Time Alt. Az. Time Alt. Az.
11 Nov -2.1 05:47:39 31° NE 05:47:39 31° NE 05:50:07 10° E visible
11 Nov -2.6 07:20:43 10° WNW 07:23:40 28° SW 07:26:37 10° SSE visible
12 Nov -3.5 06:34:31 38° W 06:35:25 51° SW 06:38:41 10° SE visible
13 Nov -2.1 05:48:32 32° SE 05:48:32 32° SE 05:50:27 10° SE visible
14 Nov -1.9 06:35:34 17° SW 06:35:34 17° SW 06:37:30 10° S visible
15 Nov -0.8 05:49:44 11° SSE 05:49:44 11° SSE 05:49:55 10° SSE visible
19 Nov -1.2 19:14:49 10° SE 19:14:55 10° SE 19:14:55 10° SE visible
20 Nov -1.8 20:00:16 10° SW 20:01:50 25° SSW 20:01:50 25° SSW visible
